Stations météo

Publicité
Split/Marjan, Croatie (14445): Température de l'air & dewpoint: 13.12.2018 03:00:00 - 19.12.2018 03:00:00 (CET)Split/Marjan, Croatie (14445): water temperature: 13.12.2018 03:00:00 - 19.12.2018 03:00:00 (CET)Split/Marjan, Croatie (14445): Vitesse du vent & gusts: 13.12.2018 03:00:00 - 19.12.2018 03:00:00 (CET)Split/Marjan, Croatie (14445): Direction du vent: 13.12.2018 03:00:00 - 19.12.2018 03:00:00 (CET)Split/Marjan, Croatie (14445): reduced air pressure: 13.12.2018 03:00:00 - 19.12.2018 03:00:00 (CET)Split/Marjan, Croatie (14445): visibility: 13.12.2018 03:00:00 - 19.12.2018 03:00:00 (CET)
Date & Time tt [°C] td [°C] tw [°C] ff [km/h] ff [knt] fx [km/h] fx [knt] dd ppp [hPa] vv [km]
19.12.2018 03:00:00 - - - - - - - - - -
19.12.2018 02:00:00 - - - - - - - - - -
19.12.2018 01:00:00 5,2 -8,5 - 36 19 - - ENE 1023,4 20
19.12.2018 00:00:00 - - - - - - - - - -
18.12.2018 23:00:00 - - - - - - - - - -
18.12.2018 22:00:00 5,9 -8,2 - 36 19 - - ENE 1024,0 20
18.12.2018 21:00:00 6,0 -7,6 - 36 19 - - ENE 1023,9 20
18.12.2018 20:00:00 7,0 -8,4 - 29 16 - - ENE 1024,2 20
18.12.2018 19:00:00 7,2 -8,0 - 25 14 - - NNE 1023,8 20
18.12.2018 18:00:00 7,9 -9,0 - 18 10 - - NNE 1023,8 -
18.12.2018 17:00:00 8,0 -8,1 - - - - - - 1023,5 -
18.12.2018 16:00:00 9,1 -6,1 - 40 21 - - ENE 1022,5 50
18.12.2018 15:00:00 9,9 -5,1 - 36 19 61 33 ENE 1022,2 50
18.12.2018 14:00:00 10,1 -5,5 - 36 19 79 43 NE 1022,3 50
18.12.2018 13:00:00 9,9 -5,5 14,5 40 21 - - ENE 1022,6 50
18.12.2018 12:00:00 10,0 -5,3 - 40 21 65 35 NE 1023,3 50
18.12.2018 11:00:00 9,5 -5,4 - 40 21 65 35 NNE 1023,7 50
18.12.2018 10:00:00 9,2 -5,2 - 25 14 - - ENE 1023,6 50
18.12.2018 09:00:00 8,2 -5,3 - 29 16 72 39 ENE 1022,6 50
18.12.2018 08:00:00 8,2 -5,0 - 36 19 68 37 ENE 1022,2 50
18.12.2018 07:00:00 7,9 -6,2 14,5 50 27 - - NNE 1021,7 30
18.12.2018 06:00:00 8,1 -5,1 - 40 21 97 53 NE 1021,2 20
18.12.2018 05:00:00 7,4 -5,5 - 32 18 94 51 NNE 1021,4 20
18.12.2018 04:00:00 7,4 -5,5 - 40 21 - - NNE 1020,8 20
18.12.2018 03:00:00 - - - - - - - - - -
18.12.2018 02:00:00 - - - - - - - - - -
18.12.2018 01:00:00 7,1 -6,4 - 36 19 - - ENE 1020,2 20
18.12.2018 00:00:00 - - - - - - - - - -
17.12.2018 23:00:00 - - - - - - - - - -
17.12.2018 22:00:00 7,3 -10,0 - 43 23 - - NE 1017,6 20
17.12.2018 21:00:00 7,4 -9,3 - 32 18 68 37 ENE 1017,0 20
17.12.2018 20:00:00 8,1 -9,8 - 47 25 68 37 NE 1015,8 20
17.12.2018 19:00:00 8,4 -8,2 - 32 18 - - NE 1015,3 20
17.12.2018 18:00:00 - - - - - - - - - -
17.12.2018 17:00:00 7,7 -5,0 - 36 19 - - ENE 1015,2 -
17.12.2018 16:00:00 7,4 -3,6 - 32 18 - - NE 1014,5 50
17.12.2018 15:00:00 7,3 -2,2 - 32 18 - - ENE 1014,7 40
17.12.2018 14:00:00 6,5 1,8 - 14 8 - - ENE 1015,0 35
17.12.2018 13:00:00 6,0 1,2 14,5 11 6 - - ENE 1015,0 25
17.12.2018 12:00:00 5,4 1,3 - 18 10 - - ENE 1015,5 30
17.12.2018 11:00:00 4,8 2,1 - 22 12 - - ENE 1016,0 25
17.12.2018 10:00:00 4,4 -0,1 - 14 8 - - NE 1016,8 15
17.12.2018 09:00:00 4,0 -1,7 - 18 10 - - ENE 1016,7 20
17.12.2018 08:00:00 3,6 -1,1 - 18 10 - - ENE 1016,5 15
17.12.2018 07:00:00 4,0 -1,7 14,5 18 10 - - ENE 1016,3 15
17.12.2018 06:00:00 4,6 -5,1 - 14 8 - - NE 1016,0 20
17.12.2018 05:00:00 4,5 -4,5 - 14 8 - - ENE 1015,6 20
17.12.2018 04:00:00 4,4 -5,0 - 18 10 - - ENE 1016,0 20
17.12.2018 03:00:00 - - - - - - - - - -
17.12.2018 02:00:00 - - - - - - - - - -
17.12.2018 01:00:00 4,3 -5,9 - 18 10 - - ENE 1018,1 20
17.12.2018 00:00:00 - - - - - - - - - -
16.12.2018 23:00:00 - - - - - - - - - -
16.12.2018 22:00:00 3,9 -5,4 - 14 8 - - ENE 1018,7 20
16.12.2018 21:00:00 3,7 -5,4 - 14 8 - - ENE 1019,0 20
16.12.2018 20:00:00 3,8 -5,6 - 18 10 - - ENE 1018,9 20
16.12.2018 19:00:00 4,2 -5,3 - 14 8 - - ENE 1019,3 20
16.12.2018 18:00:00 4,4 -5,6 - 14 8 - - ENE 1019,7 -
16.12.2018 17:00:00 4,6 -5,2 - 11 6 - - ENE 1019,0 -
16.12.2018 16:00:00 5,6 -5,4 - 4 2 - - N 1019,2 50
16.12.2018 15:00:00 5,8 -4,4 - 7 4 - - SSW 1018,8 45
16.12.2018 14:00:00 5,6 -6,2 - 7 4 - - E 1018,6 40
16.12.2018 13:00:00 5,4 -6,9 15,0 11 6 - - E 1019,0 30
16.12.2018 12:00:00 4,6 -7,0 - 14 8 - - ENE 1019,6 40
16.12.2018 11:00:00 3,4 -7,7 - 22 12 - - ENE 1019,8 35
16.12.2018 10:00:00 3,0 -7,6 - 25 14 - - ENE 1019,9 35
16.12.2018 09:00:00 2,2 -8,0 - 22 12 - - ENE 1019,2 40
16.12.2018 08:00:00 1,6 -7,3 - 32 18 - - NE 1018,9 40
16.12.2018 07:00:00 1,4 -7,2 14,5 32 18 - - NE 1018,6 40
16.12.2018 06:00:00 1,8 -7,0 - 29 16 - - NE 1018,3 20
16.12.2018 05:00:00 1,8 -7,4 - 22 12 - - ENE 1018,3 20
16.12.2018 04:00:00 2,0 -7,1 - 22 12 - - NE 1018,4 20
16.12.2018 03:00:00 - - - - - - - - - -
16.12.2018 02:00:00 - - - - - - - - - -
16.12.2018 01:00:00 2,3 -7,4 - 29 16 - - NE 1016,8 20
16.12.2018 00:00:00 - - - - - - - - - -
15.12.2018 23:00:00 - - - - - - - - - -
15.12.2018 22:00:00 3,4 -6,9 - 11 6 - - ENE 1016,4 20
15.12.2018 21:00:00 3,4 -6,5 - 25 14 - - NNE 1016,3 20
15.12.2018 20:00:00 3,4 -6,5 - 32 18 - - NE 1015,7 20
15.12.2018 19:00:00 3,6 -6,2 - 36 19 - - ENE 1015,1 20
15.12.2018 18:00:00 3,8 -5,9 - 29 16 - - NE 1015,1 -
15.12.2018 17:00:00 4,0 -5,4 - 29 16 - - ENE 1014,6 -
15.12.2018 16:00:00 4,6 -4,7 - 25 14 - - ENE 1014,0 30
15.12.2018 15:00:00 5,0 -4,1 - 25 14 - - ENE 1013,0 30
15.12.2018 14:00:00 5,1 -4,0 - 25 14 - - ENE 1012,4 30
15.12.2018 13:00:00 5,0 -4,1 14,7 25 14 - - ENE 1012,8 30
15.12.2018 12:00:00 5,0 -4,8 - 32 18 - - ENE 1013,2 30
15.12.2018 11:00:00 4,1 -3,1 - 36 19 - - NE 1013,5 25
15.12.2018 10:00:00 3,8 -2,3 - 36 19 - - ENE 1013,6 25
15.12.2018 09:00:00 2,9 -1,3 - 32 18 - - ENE 1013,5 15
15.12.2018 08:00:00 2,2 -0,5 - 43 23 72 39 ENE 1012,7 15
15.12.2018 07:00:00 2,6 -0,3 15,0 40 21 - - ENE 1012,5 15
15.12.2018 06:00:00 3,1 0,7 - 40 21 68 37 ENE 1011,2 15
15.12.2018 05:00:00 3,4 0,6 - 40 21 68 37 ENE 1011,4 15
15.12.2018 04:00:00 3,9 2,1 - 32 18 - - ENE 1011,7 10
15.12.2018 03:00:00 - - - - - - - - - -
15.12.2018 02:00:00 - - - - - - - - - -
15.12.2018 01:00:00 4,9 2,5 - 32 18 - - NE 1011,0 10
15.12.2018 00:00:00 - - - - - - - - - -
14.12.2018 23:00:00 - - - - - - - - - -
14.12.2018 22:00:00 5,5 4,0 - 29 16 - - NE 1010,8 7
14.12.2018 21:00:00 5,6 4,1 - 25 14 - - NE 1010,8 7
14.12.2018 20:00:00 5,6 4,3 - 25 14 - - NE 1010,6 8
14.12.2018 19:00:00 6,1 4,2 - 22 12 - - ENE 1010,1 15
14.12.2018 18:00:00 6,0 4,9 - - - - - - 1010,6 -
14.12.2018 17:00:00 6,2 4,9 - - - - - - 1010,4 -
14.12.2018 16:00:00 6,2 4,9 - 22 12 - - ENE 1009,9 7
14.12.2018 15:00:00 6,3 4,8 - 25 14 - - ENE 1009,7 9
14.12.2018 14:00:00 6,2 4,9 - 25 14 - - ENE 1009,7 8
14.12.2018 13:00:00 6,3 4,8 15,0 25 14 - - ENE 1009,8 8
14.12.2018 12:00:00 6,2 4,7 - 25 14 - - ENE 1010,2 7
14.12.2018 11:00:00 6,1 4,6 - 22 12 - - ENE 1010,8 7
14.12.2018 10:00:00 6,0 4,5 - 22 12 - - ENE 1011,1 10
14.12.2018 09:00:00 6,0 4,1 - 25 14 - - ENE 1010,8 12
14.12.2018 08:00:00 5,8 4,1 - 22 12 - - ENE 1010,7 10
14.12.2018 07:00:00 5,6 3,4 15,0 22 12 - - ENE 1010,4 10
14.12.2018 06:00:00 5,8 3,2 - 25 14 - - ENE 1010,4 20
14.12.2018 05:00:00 5,6 3,2 - 25 14 - - ENE 1010,6 20
14.12.2018 04:00:00 5,2 3,2 - 25 14 - - ENE 1010,9 20
14.12.2018 03:00:00 - - - - - - - - - -
14.12.2018 02:00:00 - - - - - - - - - -
14.12.2018 01:00:00 5,3 3,3 - 22 12 - - ENE 1011,6 7
14.12.2018 00:00:00 - - - - - - - - - -
13.12.2018 23:00:00 - - - - - - - - - -
13.12.2018 22:00:00 6,1 1,1 - 22 12 - - ENE 1012,1 20
13.12.2018 21:00:00 6,4 0,9 - 14 8 - - ENE 1012,4 20
13.12.2018 20:00:00 7,1 -0,1 - 18 10 - - E 1012,4 20
13.12.2018 19:00:00 6,6 -0,7 - 14 8 - - ENE 1012,6 20
13.12.2018 18:00:00 7,0 -0,6 - 25 14 - - E 1013,3 -
13.12.2018 17:00:00 6,5 -0,4 - 29 16 - - E 1013,5 -
13.12.2018 16:00:00 5,7 1,9 - 25 14 - - ENE 1013,2 25
13.12.2018 15:00:00 5,6 1,8 - 25 14 - - ENE 1013,6 15
13.12.2018 14:00:00 6,5 0,0 - 18 10 - - ENE 1013,6 18
13.12.2018 13:00:00 6,0 1,0 15,0 25 14 - - E 1014,2 20
13.12.2018 12:00:00 5,4 0,8 - 22 12 - - ENE 1014,7 18
13.12.2018 11:00:00 6,7 -0,6 - 25 14 - - E 1015,7 15
13.12.2018 10:00:00 7,4 -2,0 - 22 12 - - ESE 1016,0 25
13.12.2018 09:00:00 6,6 -6,4 - 22 12 - - ENE 1016,2 40
13.12.2018 08:00:00 6,6 -6,8 - 25 14 - - ENE 1016,0 40
13.12.2018 07:00:00 6,4 -6,8 14,5 22 12 - - ENE 1016,0 35
13.12.2018 06:00:00 6,2 -5,9 - 18 10 - - E 1016,2 20
13.12.2018 05:00:00 6,4 -6,0 - 25 14 - - ENE 1016,5 20
13.12.2018 04:00:00 6,5 -5,4 - 18 10 - - ENE 1017,3 20
13.12.2018 03:00:00 - - - - - - - - - -

tt = Température de l'air
td = dewpoint
tw = water temperature
ff = Vitesse du vent
fx = gusts
dd = Direction du vent
ppp = reduced air pressure
vv = visibility

stations d'obs. à proximité